Christchurch, New Zealand

1:36 AM NZST on May 28, 2017 (GMT +1200)
Christchurch International

Weather History for NZCH - March, 2014

Change the Weather History Date:

Wednesday, March 5, 2014

  Actual Average Record
Temperature  
Mean Temperature 50 °F -  
Max Temperature 55 °F 65 °F 87 °F (1998)
Min Temperature 46 °F 47 °F 39 °F (2006)
Degree Days  
Heating Degree Days 14    
Moisture  
Dew Point 50 °F    
Average Humidity 96    
Maximum Humidity 100    
Minimum Humidity 93    
Precipitation  
Precipitation 0.00 in - - ()
Sea Level Pressure  
Sea Level Pressure 29.94 in    
Wind  
Wind Speed 21 mph ()    
Max Wind Speed 31 mph    
Max Gust Speed 47 mph    
Visibility 4.4 miles    
Events Rain    
Averages and records for this station are not official NWS values.
T = Trace of Precipitation, MM = Missing Value Source: Averaged Metar Reports

Daily Weather History Graph

Daily Weather History Graph

Search for Another Location

Airport or City:

Trip Planner

Search our weather history database for the weather conditions in past years. The results will help you decide how hot, cold, wet, or windy it might be!

Date:

Astronomy

Mar. 05, 2014 Rise Set
Actual Time 7:12 AM NZDT 8:09 PM NZDT
Civil Twilight 6:43 AM NZDT 8:38 PM NZDT
Nautical Twilight 6:09 AM NZDT 9:12 PM NZDT
Astronomical Twilight 5:32 AM NZDT 9:48 PM NZDT
Moon 11:24 AM NZDT (3/5) 10:06 PM NZDT (3/5)
Length of Visible Light 13h 54m
Length of Day
12h 56m
Waxing Crescent, 16% of the Moon is Illuminated
Mar 5
Waxing Crescent
Mar 9
First Quarter
Mar 17
Full
Mar 24
Last Quarter
Mar 31
New

Hourly Weather History & Observations

Time (NZDT) Temp. Windchill Dew Point Humidity Pressure Visibility Wind Dir Wind Speed Gust Speed Precip Events Conditions
12:00 AM 46.4 °F 37.5 °F 44.6 °F 93% 29.83 in 3.7 mi SW 27.6 mph - N/A Rain Rain
12:30 AM 46.4 °F 37.5 °F 44.6 °F 93% 29.83 in 3.7 mi SW 27.6 mph - N/A Rain Rain
1:00 AM 46.4 °F 37.7 °F 44.6 °F 93% 29.83 in 3.7 mi SW 26.5 mph 40.3 mph N/A Rain Light Rain
1:30 AM 46.4 °F 37.7 °F 44.6 °F 93% 29.83 in - SW 26.5 mph 40.3 mph N/A Rain Light Rain
2:00 AM 46.4 °F 38.1 °F 46.4 °F 100% 29.86 in - SW 24.2 mph - N/A Rain Light Rain
2:30 AM 46.4 °F 38.1 °F 46.4 °F 100% 29.86 in 3.1 mi SW 24.2 mph 36.8 mph N/A Rain Light Rain
3:00 AM 48.2 °F - 46.4 °F 93% 29.83 in 3.1 mi SW 25.3 mph - N/A Rain Light Rain
3:30 AM 48.2 °F - 46.4 °F 93% 29.86 in - SW 23.0 mph - N/A Rain Light Rain
4:00 AM 48.2 °F - 46.4 °F 93% 29.86 in 3.1 mi SW 25.3 mph 38.0 mph N/A Rain Rain
4:30 AM 48.2 °F - 46.4 °F 93% 29.86 in - SW 21.9 mph - N/A Rain Rain
5:00 AM 48.2 °F - 46.4 °F 93% 29.86 in - SW 19.6 mph 34.5 mph N/A Rain Rain
5:30 AM 48.2 °F - 46.4 °F 93% 29.86 in - SW 21.9 mph - N/A Rain Rain
6:00 AM 48.2 °F - 46.4 °F 93% 29.83 in - SW 24.2 mph - N/A Rain Rain
6:30 AM 48.2 °F - 48.2 °F 100% 29.83 in - SW 23.0 mph - N/A Rain Light Rain
7:00 AM 48.2 °F - 48.2 °F 100% 29.86 in - SW 23.0 mph - N/A Rain Rain
7:30 AM 50.0 °F - 48.2 °F 94% 29.86 in 3.1 mi SW 24.2 mph 35.7 mph N/A Rain Light Rain
8:00 AM 50.0 °F - 48.2 °F 94% 29.86 in 2.8 mi SW 26.5 mph - N/A Rain Light Rain
8:30 AM 50.0 °F - 48.2 °F 94% 29.86 in - SW 29.9 mph 47.2 mph N/A Rain Light Rain
9:00 AM 50.0 °F - 48.2 °F 94% 29.86 in 2.8 mi SW 29.9 mph 43.7 mph N/A Rain Light Rain
9:30 AM 51.8 °F - 50.0 °F 94% 29.89 in 5.0 mi SW 31.1 mph 43.7 mph N/A Rain Light Rain
10:00 AM 51.8 °F - 50.0 °F 94% 29.89 in 4.3 mi SW 28.8 mph - N/A Rain Light Rain
10:30 AM 51.8 °F - 50.0 °F 94% 29.92 in - SW 26.5 mph 39.1 mph N/A Rain Rain
11:00 AM 51.8 °F - 50.0 °F 94% 29.95 in - SW 24.2 mph 35.7 mph N/A Rain Light Rain
11:30 AM 51.8 °F - 50.0 °F 94% 29.95 in 3.1 mi SW 19.6 mph - N/A Rain Light Rain
12:00 PM 51.8 °F - 51.8 °F 100% 29.95 in - SSW 19.6 mph - N/A Rain Rain
12:30 PM 53.6 °F - 51.8 °F 94% 29.95 in - SW 23.0 mph - N/A Rain Light Rain
1:00 PM 53.6 °F - 51.8 °F 94% 29.95 in - SW 23.0 mph - N/A Rain Light Rain
1:30 PM 53.6 °F - 51.8 °F 94% 29.98 in - SW 21.9 mph 34.5 mph N/A Rain Light Rain
2:00 PM 53.6 °F - 53.6 °F 100% 29.98 in - SW 19.6 mph - N/A Rain Rain
2:30 PM 53.6 °F - 53.6 °F 100% 29.98 in 1.9 mi SSW 19.6 mph - N/A Rain Light Rain
3:00 PM 55.4 °F - 53.6 °F 94% 29.98 in - SSW 19.6 mph - N/A Rain Light Rain
3:30 PM 55.4 °F - 53.6 °F 94% 29.98 in 1.6 mi SSW 21.9 mph - N/A Rain Light Rain
4:00 PM 55.4 °F - 53.6 °F 94% 30.01 in - SSW 20.7 mph - N/A Rain Light Rain
4:30 PM 53.6 °F - 53.6 °F 100% 30.01 in 3.7 mi SSW 18.4 mph - N/A Rain Light Rain
5:00 PM 53.6 °F - 53.6 °F 100% 30.01 in 1.7 mi SSW 18.4 mph - N/A Rain Light Rain
5:30 PM 53.6 °F - 53.6 °F 100% 30.01 in - SW 16.1 mph - N/A Rain Light Rain
6:00 PM 53.6 °F - 53.6 °F 100% 30.04 in - SW 16.1 mph - N/A   Drizzle
6:30 PM 53.6 °F - 53.6 °F 100% 30.04 in 6.2 mi SSW 17.3 mph - N/A Rain Light Rain Showers
7:00 PM 53.6 °F - 51.8 °F 94% 30.04 in 6.2 mi SW 17.3 mph - N/A   Mostly Cloudy
7:30 PM 53.6 °F - 51.8 °F 94% 30.04 in 6.2 mi SSW 15.0 mph - N/A   Overcast
8:00 PM 53.6 °F - 51.8 °F 94% 30.04 in 6.2 mi SW 13.8 mph - N/A   Mostly Cloudy
8:30 PM 53.6 °F - 51.8 °F 94% 30.06 in 6.2 mi WSW 8.1 mph - N/A   Overcast
9:00 PM 53.6 °F - 51.8 °F 94% 30.06 in 6.2 mi WSW 6.9 mph - N/A   Mostly Cloudy
9:30 PM 53.6 °F - 51.8 °F 94% 30.06 in 6.2 mi SW 12.7 mph - N/A   Overcast
10:00 PM 51.8 °F - 51.8 °F 100% 30.09 in 6.2 mi SW 8.1 mph - N/A   Mostly Cloudy
10:30 PM 51.8 °F - 51.8 °F 100% 30.09 in 6.2 mi WSW 4.6 mph - N/A   Mostly Cloudy
11:00 PM 51.8 °F - 50.0 °F 94% 30.09 in 6.2 mi WSW 8.1 mph - N/A   Overcast
11:30 PM 51.8 °F - 51.8 °F 100% 30.09 in 6.2 mi West 5.8 mph - N/A   Mostly Cloudy